RH
67 58 54 60 65 59 75 77 82 86 93 98 97 98 99 97 96 94 95 96 96 85 78 84 85 87 92 99 98 92 94 93 93 100 99 100 98 93 87 91 98 98 94
72 61 55 50 61 53 63 67 74 85 88 94 100 100 98 98 96 92 92 94 95 94 96 94 90 93 98 100 100 99 99 98 93 99 98 97 92 100 100 93 100 97 100
74 65 57 50 51 51 44 58 52 64 84 88 88 90 89 87 84 80 81 84 86 89 92 94 94 95 97 99 100 98 99 99 92 94 100 97 96 95 87 100 100 100 99
64 61 56 51 47 50 40 42 42 43 46 68 76 78 77 81 76 60 55 63 73 78 80 83 88 94 97 97 100 100 100 100 99 92 100 99 100 99 97 98 97 99 100
66 66 58 49 46 44 40 32 33 28 32 32 38 38 39 42 42 37 31 28 29 36 54 69 79 83 89 92 96 93 97 99 100 100 99 99 98 100 99 96 90 99 99
65 59 54 49 47 41 38 35 28 26 26 28 29 28 28 29 27 31 31 30 30 33 37 41 46 61 72 78 83 90 93 94 96 99 100 100 99 98 99 98 95 94 89
63 62 57 56 50 43 38 33 31 27 29 28 28 30 31 31 32 33 34 33 32 34 38 38 48 53 59 61 65 72 82 96 95 94 99 98 99 100 100 100 97 98 97
58 57 52 49 49 45 39 36 32 31 30 29 32 33 33 33 34 34 33 34 36 37 34 36 40 50 57 61 62 66 74 79 79 81 93 96 99 100 100 100 99 95 98
55 53 48 45 46 46 41 36 35 34 35 32 32 32 34 35 36 37 35 34 34 36 35 36 38 39 47 57 59 66 71 74 79 79 81 90 91 96 98 99 100 99 97
48 51 47 45 45 46 42 38 35 34 36 37 37 37 36 37 38 37 36 38 36 34 34 35 38 40 44 46 61 64 67 66 74 79 76 85 75 70 82 95 100 99 99
54 52 46 44 43 46 42 37 35 34 36 36 37 37 45 56 71 83 92 89 81 57 35 36 38 44 54 55 49 60 60 65 70 73 77 82 76 78 80 86 92 99 99
57 56 51 50 48 48 43 38 36 35 35 37 39 46 50 59 78 92 89 59 42 41 42 42 41 45 55 67 68 60 52 59 62 70 68 69 72 81 84 80 80 76 85
56 54 52 53 49 46 44 38 36 36 38 38 44 66 86 60 66 86 66 55 81 86 62 41 44 44 48 66 72 71 66 56 51 68 72 69 72 75 84 87 80 82 86
53 55 52 51 47 42 41 39 39 40 44 60 81 86 90 92 75 57 67 92 87 68 48 43 45 44 47 68 73 76 74 68 54 56 66 69 76 72 68 67 69 78 85
53 53 52 47 44 40 40 43 46 57 62 64 64 82 93 95 94 94 93 90 70 58 48 46 45 45 47 64 76 77 77 72 61 54 59 63 80 71 69 67 70 71 74
54 59 50 46 44 41 48 62 62 64 69 93 95 97 97 97 96 96 95 92 73 48 48 49 52 50 48 74 78 77 79 74 64 61 58 58 70 74 71 72 73 72 72
70 82 81 55 47 56 68 72 84 92 95 96 97 97 97 97 96 95 96 84 67 50 51 56 60 56 53 79 78 76 79 68 68 66 66 65 69 73 71 71 75 74 85
81 90 96 90 89 81 80 86 93 96 97 96 97 97 96 95 95 89 75 56 51 55 62 65 64 62 66 80 78 75 72 70 72 72 76 77 79 72 74 70 73 74 71
93 100 99 98 98 93 94 96 96 96 97 97 96 96 95 95 95 75 55 54 58 64 67 69 72 66 72 79 78 80 75 72 73 79 83 89 86 80 70 69 76 80 80
97 99 98 97 96 97 97 97 96 96 96 96 96 95 91 87 60 55 58 62 67 72 70 70 67 70 65 74 81 78 76 75 76 88 79 82 76 68 66 68 79 93 78
95 97 97 96 97 96 97 96 96 96 96 95 89 77 66 57 58 62 67 70 70 73 73 70 70 73 73 70 84 79 75 74 75 80 78 75 76 73 77 83 94 93 97
98 97 96 97 97 94 94 95 96 92 86 65 58 58 59 61 66 72 72 74 78 79 78 75 78 73 73 74 88 80 76 74 79 82 78 66 77 75 75 82 71 73 93
99 100 96 98 98 95 90 76 63 59 59 57 58 60 64 73 82 79 82 85 84 85 78 82 89 80 79 71 68 88 89 82 80 80 78 68 72 85 91 83 75 76 63
97 98 98 95 93 84 64 59 57 59 58 60 64 66 76 81 85 84 84 83 85 82 80 91 94 90 87 79 67 75 86 84 87 78 74 92 98 84 80 66 58 62 70
96 95 94 81 63 62 60 58 59 61 64 66 68 78 76 86 92 88 81 89 88 93 95 96 97 98 96 87 88 89 91 82 92 96 91 78 67 69 71 74 77 77 77
91 72 65 61 59 60 59 61 65 67 69 72 79 80 90 95 95 84 81 78 99 90 85 82 83 89 83 80 83 82 79 77 96 93 81 78 80 82 82 88 88 88 89
Wind_Speed
7 6 3 3 6 11 15 19 20 23 20 18 14 10 16 19 19 19 20 18 18 17 16 16 17 16 14 11 11 12 13 15 16 22 22 25 29 35 39 37 35 36 38
6 9 5 2 4 8 11 15 18 18 20 15 11 9 9 14 19 19 20 20 19 18 17 18 17 15 13 11 12 11 11 11 12 8 9 3 13 26 32 35 36 37 39
8 6 6 3 1 4 9 12 14 16 16 15 11 8 8 13 18 21 22 23 21 20 18 18 17 16 14 14 12 11 7 7 12 13 7 3 4 1 15 31 33 31 35
5 5 7 4 1 2 5 8 11 12 14 13 14 16 16 12 13 15 17 19 19 20 20 19 19 17 18 17 15 14 10 6 6 11 9 15 8 2 3 7 20 30 34
7 6 8 6 3 1 2 5 7 9 10 11 13 15 16 14 12 13 16 18 19 20 18 17 17 17 17 17 18 19 19 16 9 8 8 11 14 7 3 5 2 15 26
7 7 9 8 7 5 2 1 4 7 9 9 10 12 13 14 16 16 18 19 19 20 21 19 17 16 16 15 15 17 18 18 18 17 17 13 6 6 4 3 3 7 13
7 7 10 13 12 10 6 3 2 5 6 8 11 12 12 13 15 17 17 17 20 21 20 19 19 19 17 17 16 15 14 14 15 16 15 16 13 11 8 5 6 3 4
7 8 14 17 16 11 8 5 2 3 4 6 8 9 10 12 13 13 15 16 15 17 16 17 16 16 16 16 16 17 16 16 16 15 12 11 13 13 13 9 7 3 1
7 8 13 18 17 14 11 7 5 3 3 4 6 8 10 10 12 12 13 15 15 14 15 15 16 16 16 15 17 17 17 16 16 16 16 14 11 11 11 11 12 6 4
6 6 12 18 18 15 13 12 10 7 5 4 4 6 7 8 9 10 13 14 14 14 14 14 14 15 16 16 14 16 16 16 16 15 15 15 15 15 13 11 10 11 6
6 6 12 18 20 18 17 15 13 11 9 7 6 5 4 3 4 7 8 10 11 12 13 13 12 12 16 16 16 14 14 15 15 16 15 15 16 19 15 15 14 12 9
7 7 9 10 16 19 16 13 11 10 9 9 7 5 4 5 7 7 8 10 9 11 11 12 13 11 11 15 17 17 15 14 14 13 14 15 14 15 15 16 15 13 12
9 9 8 4 15 18 16 15 14 12 12 10 7 3 2 3 5 8 8 6 8 9 11 12 12 11 9 13 12 14 15 15 14 12 12 13 14 15 15 12 15 14 13
7 7 6 3 10 15 15 14 13 13 11 7 3 1 1 2 3 4 5 5 7 8 9 9 9 9 7 10 13 11 13 14 13 11 10 10 11 11 13 12 12 12 13
6 7 8 4 10 15 16 15 13 8 5 4 4 1 4 2 3 4 3 5 7 7 7 8 8 8 7 8 12 11 11 14 14 12 11 9 9 8 10 11 12 11 11
7 8 8 1 9 16 17 14 11 7 4 4 3 2 2 1 2 3 4 5 7 7 7 7 8 9 9 9 10 10 10 13 13 14 13 11 8 10 9 10 10 10 12
5 6 6 5 6 11 12 10 7 3 2 2 2 2 1 1 3 3 4 5 7 7 7 7 8 10 9 10 10 9 7 9 10 11 13 12 9 10 11 12 12 11 9
3 3 4 6 9 9 9 7 3 1 2 3 2 1 1 3 4 5 5 6 6 8 7 6 8 9 8 10 10 9 9 8 8 11 11 10 11 11 12 13 13 13 13
2 3 5 6 7 6 4 2 3 3 2 3 1 1 3 5 5 6 6 6 8 7 7 6 7 8 8 8 8 8 7 8 9 10 10 9 11 12 14 14 15 17 18
2 3 4 3 4 3 3 4 3 3 3 0 2 4 5 6 7 6 7 7 6 6 6 6 7 6 8 8 8 8 9 10 11 8 10 9 11 14 14 15 14 14 16
1 1 3 5 4 2 3 4 3 2 1 3 4 5 7 8 6 7 6 6 6 5 7 8 7 8 9 9 9 9 9 11 10 8 8 12 14 14 15 16 11 14 17
3 3 4 4 2 1 1 1 1 3 5 6 7 7 8 7 6 5 5 5 5 7 9 9 11 10 11 10 11 11 9 9 12 13 16 16 15 17 15 14 15 17 12
3 2 3 2 1 2 2 3 4 5 7 7 8 8 8 5 5 6 5 5 6 8 11 10 13 14 13 15 12 11 11 13 14 16 17 18 17 14 12 13 13 14 18
3 2 2 2 4 4 4 6 7 7 8 8 8 8 6 5 7 5 6 7 7 9 9 13 14 15 14 15 15 16 14 13 15 17 19 16 7 8 9 17 18 15 15
2 2 4 6 6 7 8 9 9 9 9 10 10 7 7 7 8 9 8 7 8 9 14 14 14 14 15 15 16 16 15 16 15 13 2 7 13 13 13 13 13 13 13
4 5 6 8 10 11 11 10 9 10 11 11 9 9 8 7 10 10 10 7 8 9 11 13 14 15 15 16 16 16 16 17 13 6 13 13 11 12 13 14 15 15 15
Wind_Direction
217 220 260 317 350 6 20 23 24 27 27 34 28 16 26 37 38 34 30 30 30 29 29 23 13 5 355 347 343 328 322 309 298 264 255 246 247 252 255 251 256 250 252
217 227 228 299 1 10 19 25 30 32 35 35 41 41 40 44 45 44 44 41 38 36 36 37 29 14 6 8 6 356 339 319 304 304 272 269 241 242 242 246 248 245 247
218 215 215 237 6 23 29 30 32 37 41 46 60 71 67 52 44 41 40 42 47 47 46 50 49 42 33 28 22 9 3 331 314 301 309 263 236 258 247 241 233 232 236
226 204 202 218 241 32 35 37 35 39 47 50 58 64 65 56 43 43 42 42 41 44 43 47 55 54 50 47 42 38 28 18 0 333 296 304 316 300 272 233 237 242 239
214 213 211 215 220 221 41 40 40 44 50 56 65 72 73 68 62 58 54 49 46 41 41 40 38 41 46 52 49 51 51 50 39 31 354 339 330 334 290 291 267 230 235
213 214 214 208 214 213 206 54 45 55 51 55 65 69 73 69 64 55 52 50 47 44 40 41 41 36 34 36 44 52 55 55 56 57 48 41 17 356 344 323 334 279 264
199 203 200 207 210 211 207 195 148 85 69 62 63 66 69 66 62 56 51 45 42 38 35 35 36 39 37 36 37 43 46 46 49 53 56 55 42 21 346 342 314 316 358
202 207 209 214 215 211 207 206 177 113 79 70 68 64 63 65 63 57 53 49 44 40 36 37 36 37 39 38 38 43 43 42 44 43 39 43 41 37 36 23 339 332 299
227 226 218 220 217 208 203 199 186 149 115 83 77 72 65 60 60 59 56 49 42 38 35 35 35 38 37 38 39 38 38 41 39 39 39 37 33 23 28 31 36 10 342
266 239 227 225 218 208 198 192 188 179 157 135 97 82 79 68 60 56 54 45 37 31 29 30 31 35 37 38 39 36 37 37 38 35 38 34 27 31 39 33 30 39 6
326 280 242 228 214 202 196 191 179 168 156 153 145 131 93 51 10 8 16 16 18 15 17 23 24 29 32 33 34 36 32 35 32 33 32 32 25 30 29 38 45 36 23
339 336 322 230 201 195 190 181 173 172 162 151 143 116 77 14 354 11 23 25 21 22 18 22 23 23 25 25 26 26 25 24 23 26 28 25 24 27 25 27 23 29 23
352 344 353 220 197 189 184 182 178 169 165 173 167 180 314 41 12 7 23 16 5 7 0 5 13 13 17 20 13 16 18 18 14 14 17 17 21 24 25 23 14 10 12
349 333 334 224 196 188 184 181 174 175 178 190 196 222 256 279 19 34 36 346 4 355 354 355 357 2 3 17 9 2 4 7 10 10 9 7 19 15 11 5 6 3 9
6 339 322 208 179 179 175 173 179 174 161 146 144 207 310 273 274 274 0 5 354 345 344 345 348 353 356 357 352 349 350 355 358 4 5 1 2 354 356 358 357 354 357
360 353 347 325 188 177 166 163 160 154 193 266 272 252 273 293 327 349 358 350 342 328 335 343 347 349 351 346 344 341 340 346 353 356 357 357 358 352 354 352 350 343 339
358 4 12 38 127 141 158 157 158 178 263 228 197 222 273 327 341 348 342 338 329 326 333 335 338 343 344 341 337 334 334 343 346 349 348 351 345 348 350 345 347 347 346
16 20 53 85 107 130 140 152 175 214 182 196 199 234 322 340 340 332 322 322 324 328 331 329 331 336 337 338 334 330 330 328 331 337 341 339 345 344 335 332 337 335 329
74 71 84 101 105 118 141 174 167 163 176 154 183 301 324 329 320 311 304 319 323 327 328 321 324 338 335 336 332 337 349 338 331 338 345 345 337 332 329 332 332 329 328
133 127 110 118 109 95 129 149 136 134 125 330 306 321 320 311 301 289 307 312 318 312 322 328 323 337 336 341 335 332 333 333 332 331 337 333 327 322 320 321 324 327 324
177 121 126 115 97 94 139 129 136 134 274 303 319 304 292 294 294 294 306 314 317 319 328 330 338 342 345 343 338 334 329 325 320 326 316 317 315 314 314 322 344 322 322
152 132 151 145 116 70 99 65 287 300 313 303 298 294 298 303 287 297 305 310 313 323 327 330 338 348 347 344 332 330 326 321 322 314 311 314 306 307 317 322 322 319 339
149 167 194 190 275 325 325 299 298 288 291 301 300 302 300 292 285 302 299 300 311 321 321 327 330 334 338 336 331 318 313 312 309 305 301 302 306 313 317 319 318 318 317
163 184 231 269 288 281 285 291 297 287 293 299 299 300 290 295 295 290 291 295 304 311 308 315 314 317 318 322 323 313 315 311 305 299 293 297 317 331 322 316 318 314 307
216 268 283 291 287 285 293 294 289 288 291 296 293 279 295 293 293 301 299 297 297 294 294 302 304 296 297 302 301 307 312 306 300 306 51 334 327 321 312 305 300 303 298
289 288 288 292 293 294 295 292 284 287 292 288 280 282 294 298 298 301 303 283 292 295 295 297 296 298 295 301 303 308 311 310 322 338 337 329 319 302 299 298 301 303 298